Regional Weather Roundup
Issued by NWS Austin/San Antonio, TX

Home | Current Version | Previous Version | Text Only | Print | Product List | Glossary On
Versions: 1 2 3 4 5 6 7 8 9 10 11 12 13 14 15 16 17 18 19 20 21 22 23 24 25 26 27 28 29 30 31 32 33 34 35 36 37 38 39 40 41 42 43 44 45 46 47 48 49 50
000
ASUS44 KEWX 171302
RWREWX
SOUTH TEXAS REGIONAL WEATHER ROUNDUP
NATIONAL WEATHER SERVICE AUSTIN/SAN ANTONIO TX
800 AM CDT THU AUG 17 2017

NOTE: "FAIR" INDICATED FEW OR NO CLOUDS BELOW 12,000 FEET WITH NO
SIGNIFICANT WEATHER AND/OR OBSTRUCTIONS TO VISIBILITY.

* - THESE STATIONS ARE NOT NWS OR FAA STATIONS...AND ARE NOT SUBJECT
    TO NWS AND FAA QUALITY CONTROL.

TXZ171-172-183>190-171400-
TEXAS HILL COUNTRY AND EDWARDS PLATEAU

CITY           SKY/WX    TMP DP  RH WIND       PRES   REMARKS
JUNCTION       CLOUDY    79  73  82 VRB5      30.04R
*LLANO         PTSUNNY   79  75  89 CALM      30.06R
BURNET         PTSUNNY   79  73  82 S8        30.06R
*HORSESHOE BAY PTSUNNY   78  73  83 CALM      30.04R
*KERRVILLE     CLOUDY    76  74  91 S7        30.07R
*FREDERICKSBRG PTSUNNY   75  70  83 S3        30.06S
*ROCKSPRINGS   NOT AVBL
*BOERNE STAGE  CLOUDY    77  72  83 S6        30.07R
*CASTROVILLE   CLOUDY    79  73  82 E3        30.03R
HONDO          CLOUDY    81  75  82 SE6       30.03R
*UVALDE        DRZL/FOG  78  73  85 E8        30.02S VSB<1/4
DEL RIO        PTCLDY    80  72  76 E9        29.98R
LAUGHLIN AFB   PTCLDY    79  73  82 SE8       29.99R
CARRIZO SPRGS  PTCLDY    79  72  78 E5        29.97R
*EAGLE PASS    NOT AVBL
$$

TXZ173-191>194-202-209-217>225-228-171400-
CENTRAL AND SOUTH CENTRAL TEXAS

CITY           SKY/WX    TMP DP  RH WIND       PRES   REMARKS
GEORGETOWN     SUNNY     81  74  79 S9        30.04R
AUSTIN/BERGSTM MOSUNNY   82  76  81 S9        30.02R
AUSTIN/MABRY   MOSUNNY   81  75  82 VRB3      30.03R
*AUSTIN/EXEC   SUNNY     81  75  83 S6        30.03R
*LAGO VISTA    SUNNY     79  74  82 SW6       30.06R
SAN MARCOS     PTSUNNY   81  75  83 S7          N/A
NEW BRAUNFELS  CLOUDY    80  76  87 S5        30.02R
RANDOLPH AFB   MOSUNNY   78  78 100 CALM      30.03R
PT SAN ANTONIO MOSUNNY   80  76  86 SE7       30.01R
SAN ANTONIO    PTSUNNY   81  74  79 SE8       30.04R
STINSON FIELD  MOSUNNY   81  75  82 SE6       30.00R
*LA GRANGE     SUNNY     82  80  93 S3        30.01R HX  93
*GIDDINGS      MOSUNNY   79  75  90 S3        30.03R FOG
*GONZALES      MOSUNNY   81  80  98 S5        30.02R HX  91
$$

TXZ163>164-176>182-195>201-210>213-226-227-235-171400-
SOUTHEAST TEXAS

CITY           SKY/WX    TMP DP  RH WIND       PRES   REMARKS
COLLEGE STN    SUNNY     81  78  91 S8        30.01S
*BRYAN         SUNNY     81  79  95 S9        30.03R HX  91
*CALDWELL      NOT AVBL
*CROCKETT      MOSUNNY   79  77  94 SW8       30.05R
*BRENHAM       SUNNY     81  80  97 S3        30.03R FOG     HX  91
HUNTSVILLE     CLOUDY    83  77  82 S7        30.03R HX  92
CONROE         PTSUNNY   83  77  82 S9        30.03R HX  92
HOUSTON BUSH   MOSUNNY   83  77  82 S5        30.03R HX  92
HOUSTON HOBBY  MOSUNNY   83  76  79 SW5       30.02R HX  91
*HOUSTON SW AP SUNNY     77  76  97 CALM      30.04R FOG
PEARLAND       SUNNY     84  77  79 S3        30.04R HX  94
HOUSTON HOOKS  SUNNY     83  78  85 S6        30.03R HX  93
ELLINGTON FLD  MOSUNNY   88  77  70 SW3       30.04R HX 100
SUGAR LAND     SUNNY     83  78  85 S6        30.02S HX  93
*HOUSTON EXEC  SUNNY     79  79 100 S6        30.04R FOG
*CLEVELAND MUN SUNNY     78  77  97 CALM      30.04S FOG
*WHARTON       SUNNY     78  75  91 CALM      30.03R FOG
*COLUMBUS      FAIR      81  78  92 CALM      30.04R
*EAGLE LAKE    PTSUNNY   82  80  95 CALM      30.02S HX  92
$$

TXZ214>216-236>238-171400-
THE UPPER TEXAS COAST

CITY           SKY/WX    TMP DP  RH WIND       PRES   REMARKS
*ORANGE        PTSUNNY   85  80  86 SW5       30.05S HX  98
PORT ARTHUR    MOSUNNY   82  78  88 S5        30.02S HX  91
GALVESTON      MOSUNNY   86  79  79 SW14G21   30.03S HX  99
ANGLETON       MOSUNNY   83  79  88 CALM      30.03R HX  94
*BAY CITY      SUNNY     81  77  90 CALM      30.02S
PALACIOS       MOSUNNY   84  77  79 S10       30.01S HX  94
$$

TXZ229>234-239>247-171400-
TEXAS COASTAL BEND AND RIO GRANDE PLAINS

CITY           SKY/WX    TMP DP  RH WIND       PRES   REMARKS
VICTORIA       CLOUDY    81  78  91 S7        30.01R
*BEEVILLE      SUNNY     81  81 100 SE7       30.00R HX  91
ROCKPORT       CLOUDY    83  78  85 S7        29.99R HX  93
*PORT ARANSAS  PTSUNNY   82  78  88 S6        29.99S HX  92
*PORT LAVACA   SUNNY     79  76  89 S5        30.01S FOG
*INGLESIDE     SUNNY     83  78  84 MISG      29.99S HX  94
CORPUS CHRISTI MOSUNNY   79  78  97 SE6       29.99R
CORPUS NAS     PTSUNNY   84  79  85 S13       29.99R HX  96
*ROBSTOWN      SUNNY     82  76  83 S6        30.00R
ALICE          PTSUNNY   78  76  93 SE7       29.98R
KINGSVILLE NAS MOSUNNY   81  79  94 SE8       29.98R HX  90
COTULLA        MOSUNNY   81  74  79 SE8       29.98R
*FAITH RANCH   CLEAR     81  75  83 SE8       29.98R
LAREDO         MOSUNNY   82  74  76 SE14      29.98
$$

TXZ248>255-171400-
DEEP SOUTH TEXAS

CITY           SKY/WX    TMP DP  RH WIND       PRES   REMARKS
BROWNSVILLE    MOSUNNY   80  79  96 SE7       29.99R
PORT ISABEL    MOSUNNY   82  79  90 SE8       29.99R HX  92
*SOUTH PADRE   NOT AVBL
HARLINGEN      MOSUNNY   80  78  94 SE7       29.98R
*HEBBRONVILLE  SUNNY     77  74  90 S6        30.00S FOG
MCALLEN        SUNNY     82  77  84 SE9       29.98R HX  90
*WESLACO       MOSUNNY   80  76  87 SE6       29.97R
FALFURRIAS     SUNNY     79  77  93 SE5       29.98R
EDINBURG       CLOUDY    80  76  87 CALM      29.99R
*ZAPATA        MOSUNNY   81  72  75 SE6       29.97R
$$

TXZ213>215-236>238-242>244-246-247-251-254-255-171400-
CMAN STATIONS

STATION/POSITION TIME  TEMP    WIND        PRES    WAVE
                       AIR SEA DIR/SP/G            HT/PER
                 (UTC) (F)     (DEG/KT/KT) (MB)    (FT/S)
SABINE PASS      1230   86 88  190/ 10/ 14 1018.3
SEA RIM ST PARK  1200   85     200/ 12/ 16 1017.3
NORTH JETTY/GLS  1230      86  200/ 14/ 16 1016.2
EAGLE POINT      1230   84 86  230/  6/  9 1016.7
MORGANS POINT    1230   84 87  220/  5/  7 1016.6
MISSION/ARANSAS  1200          180/  9     1016.0
PORT O`CONNOR    1230   85     170/ 12/ 16 1015.6
PORT ARANSAS     1200   83 85  170/  9/ 11 1015.5
MALAQUITE BEACH  1230   83 85  160/ 13/ 16 1014.9
BAFFIN BAY       1230   81 84              1015.7
PORT ISABEL      1230   81 82              1015.5
$$




USA.gov is the U.S. government's official web portal to all federal, state and local government web resources and services.